Weather History for Bismarck, ND

Change the Weather History Date:

Friday, August 9, 2013

  Actual Average Record
Temperature  
Mean Temperature 63 °F 71 °F  
Max Temperature 77 °F 85 °F 107 °F (1958)
Min Temperature 48 °F 57 °F 40 °F (1967)
Degree Days  
Heating Degree Days 2 1  
Month to date heating degree days 3 6  
Since 1 June heating degree days 111 116  
Since 1 July heating degree days 25 23  
Cooling Degree Days 0 7  
Month to date cooling degree days 13 63  
Year to date cooling degree days 294 367  
Since 1 June cooling degree days 282 350  
Growing Degree Days 12 (Base 50)    
Moisture  
Dew Point 48 °F    
Average Humidity 63    
Maximum Humidity 93    
Minimum Humidity 33    
Precipitation  
Precipitation 0.00 in 0.08 in 3.12 in (1909)
Month to date precipitation 0.04 0.71  
Year to date precipitation 14.98 12.24  
Snow  
Snow 0.00 in 0.00 in 0.00 in (2002)
Month to date snowfall 0.0 0.0  
Since 1 June snowfall 0.0 0.0  
Since 1 July snowfall 0.0 0.0  
Snow Depth 0.00 in    
Sea Level Pressure  
Sea Level Pressure 30.16 in    
Wind  
Wind Speed 7 mph (North)    
Max Wind Speed 17 mph    
Max Gust Speed 25 mph    
Visibility 10 miles    
Events      
T = Trace of Precipitation, MM = Missing Value Source: NWS Daily Summary

Daily Weather History Graph

Daily Weather History Graph

Search for Another Location

Airport:

Trip Planner

Search our weather history database for the weather conditions in past years. The results will help you decide how hot, cold, wet, or windy it might be!

Date:

Astronomy

Aug. 09, 2013 Rise Set
Actual Time 6:33 AM CDT 9:02 PM CDT
Civil Twilight 5:59 AM CDT 9:36 PM CDT
Nautical Twilight 5:16 AM CDT 10:19 PM CDT
Astronomical Twilight 4:27 AM CDT 11:07 PM CDT
Moon 9:36 AM CDT (8/9) 9:56 PM CDT (8/9)
Length of Visible Light 15h 37m
Length of Day
14h 29m
Waxing Crescent, 8% of the Moon is Illuminated
Aug 9
Waxing Crescent
Aug 14
First Quarter
Aug 20
Full
Aug 28
Last Quarter
Sep 5
New

Hourly Weather History & Observations

Time (CDT) Temp. Dew Point Humidity Pressure Visibility Wind Dir Wind Speed Gust Speed Precip Events Conditions
12:52 AM 57.0 °F 51.1 °F 81% 30.12 in 10.0 mi ENE 6.9 mph - N/A   Clear
1:52 AM 55.0 °F 48.9 °F 80% 30.14 in 10.0 mi NE 4.6 mph - N/A   Clear
2:52 AM 53.1 °F 48.0 °F 83% 30.13 in 10.0 mi Calm Calm - N/A   Clear
3:52 AM 48.9 °F 46.0 °F 90% 30.15 in 10.0 mi Calm Calm - N/A   Partly Cloudy
4:52 AM 55.9 °F 50.0 °F 80% 30.15 in 10.0 mi Calm Calm - N/A   Overcast
5:52 AM 55.9 °F 48.9 °F 77% 30.15 in 10.0 mi Calm Calm - N/A   Overcast
6:52 AM 53.1 °F 48.0 °F 83% 30.17 in 10.0 mi WNW 5.8 mph - N/A   Clear
7:52 AM 57.0 °F 48.9 °F 74% 30.17 in 10.0 mi WNW 5.8 mph - N/A   Clear
8:52 AM 61.0 °F 48.0 °F 62% 30.19 in 10.0 mi West 3.5 mph - N/A   Clear
9:52 AM 64.9 °F 46.9 °F 52% 30.19 in 10.0 mi WNW 9.2 mph - N/A   Clear
10:52 AM 66.0 °F 46.0 °F 48% 30.19 in 10.0 mi North - - N/A   Clear
11:52 AM 70.0 °F 46.0 °F 42% 30.19 in 10.0 mi NW 9.2 mph - N/A   Partly Cloudy
12:52 PM 72.0 °F 44.1 °F 37% 30.18 in 10.0 mi NW 11.5 mph - N/A   Clear
1:52 PM 73.0 °F 44.1 °F 35% 30.17 in 10.0 mi North 8.1 mph 18.4 mph N/A   Clear
2:52 PM 75.0 °F 44.1 °F 33% 30.16 in 10.0 mi NW 12.7 mph 21.9 mph N/A   Clear
3:52 PM 75.9 °F 44.1 °F 32% 30.15 in 10.0 mi NW 13.8 mph 25.3 mph N/A   Clear
4:52 PM 75.9 °F 45.0 °F 33% 30.14 in 10.0 mi NNW 12.7 mph - N/A   Clear
5:52 PM 75.0 °F 46.9 °F 37% 30.14 in 10.0 mi NNE 11.5 mph - N/A   Partly Cloudy
6:52 PM 71.1 °F 51.1 °F 49% 30.15 in 10.0 mi NNE 15.0 mph - N/A   Partly Cloudy
7:52 PM 68.0 °F 50.0 °F 52% 30.16 in 10.0 mi NE 12.7 mph - N/A   Clear
8:52 PM 64.0 °F 50.0 °F 60% 30.18 in 10.0 mi NE 11.5 mph - N/A   Clear
9:52 PM 61.0 °F 48.9 °F 64% 30.19 in 10.0 mi NE 6.9 mph - N/A   Clear
10:52 PM 52.0 °F 46.9 °F 83% 30.21 in 10.0 mi East 4.6 mph - N/A   Clear
11:52 PM 53.1 °F 46.9 °F 80% 30.21 in 10.0 mi ENE 4.6 mph - N/A   Clear